Overview Statistics Trail Chart Weather Telemetry Raw packets
 

This is the latest recevied weather packets stored in our database for station/object K7SKM. If no packets are shown the sender has not sent any weather packets the latest 10 day(s).

<< 44 45 46 47 48 49 50 >>
Time Temp. Humidity Pressure Rain* Wind** Luminosity Snow
1788376127 22.22° C 51% 1009.3 hPa 0 mm - 53 W/m² -
1788375827 22.22° C 50% 1009.4 hPa 0 mm - 121 W/m² -
1788375523 22.22° C 51% 1009.5 hPa 0 mm - 279 W/m² -
1788375218 21.11° C 54% 1009.6 hPa 0 mm - 210 W/m² -
1788374914 20.56° C 56% 1009.6 hPa 0 mm - 215 W/m² -
1788374609 20.56° C 57% 1009.7 hPa 0 mm - 146 W/m² -
1788374305 20° C 59% 1009.9 hPa 0 mm - 159 W/m² -
1788374001 20° C 58% 1009.7 hPa 0 mm - 126 W/m² -
1788373697 20° C 60% 1009.8 hPa 0 mm - 269 W/m² -
1788373393 20° C 61% 1009.9 hPa 0 mm - 139 W/m² -
1788373089 19.44° C 63% 1010 hPa 0 mm - 129 W/m² -
1788372784 18.89° C 64% 1010 hPa 0 mm - 124 W/m² -
1788372478 18.89° C 65% 1010.1 hPa 0 mm - 135 W/m² -
1788372174 18.89° C 65% 1009.9 hPa 0 mm - 137 W/m² -
1788371869 18.89° C 66% 1010 hPa 0 mm - 115 W/m² -
1788371565 18.33° C 66% 1010.1 hPa 0 mm - 52 W/m² -
1788371260 18.33° C 65% 1010.2 hPa 0 mm - 52 W/m² -
1788370956 18.33° C 64% 1010.4 hPa 0 mm - 54 W/m² -
1788370652 18.33° C 66% 1010.3 hPa 0 mm - 49 W/m² -
1788370351 18.33° C 66% 1010.4 hPa 0 mm - 55 W/m² -
1788370046 18.33° C 67% 1010.4 hPa 0 mm - 63 W/m² -
1788369746 18.33° C 66% 1010.5 hPa 0 mm - 64 W/m² -
1788369441 18.33° C 68% 1010.5 hPa 0 mm - 67 W/m² -
1788369136 18.33° C 69% 1010.6 hPa 0 mm - 64 W/m² -
1788368832 17.78° C 69% 1010.6 hPa 0 mm - 60 W/m² -

* Rain latest hour (hover to see other rain measurements)
** Current wind speed in m/s (hover to see current wind gust speed)